All Stations Radar Satellite Rainfall Station Map Enhanced Site
Observations: Wind Gusts Humidity Temperature    
Forecasts: Wind Gusts Humidity Temperature    

Valley Center (907, 908, 909, 1030, 6926) Station Data (Station Map)

Red Flag Warning: No
Fire Weather Zone: 250
SDGE Region: North East
Lat/Lon: 33.236/-117.001

Observations

Time (PDT)Wind Spd/GustTempRHFuel Moisture
4/24 11:30amNW 6 G 1069°46%-
4/24 11:20amNW 4 G 970°46%-
4/24 11:10amWNW 4 G 969°47%-
4/24 11:00amWNW 3 G 768°48%-
4/24 10:50amNW 3 G 768°47%-
4/24 10:40amW 4 G 968°49%-
4/24 10:20amNW 5 G 1166°51%-
4/24 10:10amW 3 G 867°50%-
4/24 10:00amSW 2 G 667°50%-
4/24 9:50amSW 3 G 766°51%-
4/24 9:40amWSW 3 G 666°52%-
4/24 9:30amWNW 2 G 665°53%-
4/24 9:20amNW 2 G 665°53%-
4/24 9:10amSW 1 G 565°53%-
4/24 9:00amSW 1 G 464°54%-
4/24 8:50amWSW 1 G 363°55%-
4/24 8:40amWNW 2 G 463°55%-
4/24 8:30amW 1 G 363°55%-
4/24 8:20amSSE 1 G 263°56%-
4/24 8:10amSSE 1 G 261°58%-
4/24 8:00amESE 1 G 161°62%-
4/24 7:50amNNE 1 G 159°68%-
4/24 7:40amNE 1 G 157°71%-
4/24 7:30amE 1 G 157°73%-
4/24 7:20amE 1 G 156°78%-
4/24 7:10amENE 1 G 154°98%-
4/24 7:00amNE 1 G 151°100%-
4/24 6:50amNE 1 G 149°100%-
4/24 6:40amE 1 G 148°100%-
4/24 6:30amNNE 1 G 148°100%-
4/24 6:20amNNE 1 G 149°100%-
4/24 6:10amN 1 G 149°100%-
4/24 6:00amNNE 2 G 350°100%-
4/24 5:50amNNE 1 G 250°100%-
4/24 5:40amNE 1 G 249°100%-
4/24 5:30amENE 1 G 249°100%-
4/24 5:20amN 1 G 248°100%-
4/24 5:10amNE 1 G 148°100%-
4/24 5:00amNE 1 G 247°100%-
4/24 4:50amENE 1 G 148°100%-
4/24 4:40amNNE 1 G 248°100%-
4/24 4:30amNNE 1 G 249°100%-
4/24 4:20amNW 1 G 149°100%-
4/24 4:10amNNW 1 G 249°100%-
4/24 4:00amN 1 G 150°100%-
4/24 3:50amNNW 1 G 250°100%-
4/24 3:40amNE 1 G 251°100%-
4/24 3:30amENE 1 G 151°100%-
4/24 3:20amENE 1 G 151°100%-
4/24 3:10amENE 1 G 251°100%-
4/24 3:00amENE 1 G 250°100%-
4/24 2:50amENE 1 G 150°100%-
4/24 2:40amE 1 G 250°100%-
4/24 2:30amENE 1 G 149°100%-
4/24 2:20amE 1 G 249°100%-
4/24 2:10amESE 1 G 150°99%-
4/24 2:00amNNE 1 G 251°100%-
4/24 1:50amNNE 2 G 251°100%-
4/24 1:40amNNE 1 G 251°99%-
4/24 1:30amNNE 1 G 152°88%-
4/24 1:20amN 1 G 252°100%-
4/24 1:10amN 1 G 151°94%-
4/24 1:00amNNE 1 G 152°96%-
4/24 12:50amNNE 1 G 151°100%-
4/24 12:40amNNE 1 G 151°100%-
4/24 12:30amNE 1 G 151°100%-
4/24 12:20amNNE 1 G 152°89%-
4/24 12:10amNE 1 G 253°86%-
4/24 12:00amNNE 1 G 253°83%-
4/23 11:50pmNE 1 G 254°96%-
4/23 11:40pmNE 2 G 353°99%-
4/23 11:30pmNE 1 G 253°100%-
4/23 11:20pmNE 1 G 253°100%-
4/23 11:10pmENE 1 G 252°100%-
4/23 11:00pmNE 1 G 252°100%-
4/23 10:50pmENE 1 G 252°100%-
4/23 10:40pmENE 1 G 152°94%-
4/23 10:30pmNE 1 G 152°84%-
4/23 10:20pmNE 1 G 153°82%-
4/23 10:10pmNE 1 G 153°79%-
4/23 10:00pmNNE 1 G 253°77%-
4/23 9:50pmNE 1 G 154°75%-
4/23 9:40pmNNW 1 G 155°74%-
4/23 9:30pmNNE 1 G 155°73%-
4/23 9:20pmWNW 1 G 156°71%-
4/23 9:10pmNNW 1 G 156°71%-
4/23 9:00pmNNE 1 G 256°69%-
4/23 8:50pmNNW 1 G 157°67%-
4/23 8:40pmNNW 1 G 157°66%-
4/23 8:30pmN 1 G 158°64%-
4/23 8:20pmN 1 G 158°63%-
4/23 8:10pmNNW 1 G 258°62%-
4/23 8:00pmNW 1 G 159°61%-
4/23 7:50pmW 1 G 359°61%-
4/23 7:40pmW 2 G 460°60%-
4/23 7:30pmW 3 G 560°60%-
4/23 7:20pmWNW 2 G 461°58%-
4/23 7:10pmNW 3 G 662°57%-
4/23 7:00pmWNW 4 G 862°55%-
4/23 6:50pmWNW 5 G 963°54%-
4/23 6:40pmNW 5 G 964°52%-
4/23 6:30pmWNW 4 G 865°50%-
4/23 6:20pmW 5 G 965°50%-
4/23 6:10pmWNW 5 G 966°50%-
4/23 6:00pmWNW 6 G 1166°49%-
4/23 5:50pmWNW 5 G 967°49%-
4/23 5:40pmWNW 5 G 967°49%-
4/23 5:30pmWNW 5 G 1068°49%-
4/23 5:20pmWNW 6 G 1068°48%-
4/23 5:10pmW 3 G 870°47%-
4/23 5:00pmWNW 5 G 969°48%-
4/23 4:50pmW 3 G 870°46%-
4/23 4:40pmSW 2 G 670°45%-
4/23 4:30pmSSW 2 G 570°46%-
4/23 4:20pmWNW 4 G 969°47%-
4/23 4:10pmSW 3 G 869°48%-
4/23 4:00pmSW 3 G 1069°48%-
4/23 3:50pmWSW 4 G 1068°49%-
4/23 3:40pmWSW 5 G 1168°50%-
4/23 3:30pmSW 6 G 1068°49%-
4/23 3:20pmWSW 5 G 1268°49%-
4/23 3:10pmW 4 G 1069°47%-
4/23 3:00pmWSW 5 G 1168°48%-
4/23 2:50pmWSW 6 G 1468°48%-
4/23 2:40pmWSW 7 G 1568°48%-
4/23 2:30pmW 7 G 1368°47%-
4/23 2:20pmW 6 G 1370°45%-
4/23 2:10pmWSW 5 G 1170°43%-
4/23 2:00pmNW 4 G 870°32%-
4/23 1:50pmNW 4 G 869°33%-
4/23 1:40pmWNW 5 G 970°34%-
4/23 1:30pmSW 3 G 970°33%-
4/23 1:20pmWNW 3 G 869°35%-
4/23 1:10pmW 5 G 1168°36%-
4/23 1:00pmWNW 3 G 1069°36%-
4/23 12:50pmNNW 3 G 868°38%-
4/23 12:40pmWNW 4 G 967°39%-
4/23 12:30pmW 3 G 767°40%-
4/23 12:20pmSW 3 G 1067°42%-
4/23 12:10pmWSW 3 G 867°43%-
4/23 12:00pmSW 2 G 766°44%-
4/23 11:50amWNW 4 G 965°46%-
4/23 11:40amWNW 4 G 1065°46%-
4/23 11:30amNW 2 G 664°47%-
4/23 11:20amNW 4 G 1263°47%-
4/23 11:10amNW 4 G 963°48%-
4/23 11:00amNNW 4 G 1062°49%-
4/23 10:50amWNW 3 G 762°51%-
4/23 10:40amNNW 2 G 762°54%-
4/23 10:30amWSW 2 G 661°57%-
4/23 10:20amWNW 2 G 660°59%-
4/23 10:10amWNW 3 G 759°60%-
4/23 10:00amS 2 G 659°62%-
4/23 9:50amW 2 G 559°63%-
4/23 9:40amSW 2 G 558°65%-
4/23 9:30amSW 1 G 358°66%-
4/23 9:20amS 1 G 457°68%-
4/23 9:10amESE 1 G 456°71%-
4/23 9:00amESE 2 G 456°74%-
4/23 8:50amSE 1 G 354°84%-
4/23 8:40amNNW 1 G 354°95%-
4/23 8:30amS 1 G 554°97%-
4/23 8:20amSSE 3 G 753°99%-
4/23 8:10amSSE 3 G 753°100%-
4/23 8:00amESE 1 G 452°100%-
4/23 7:50amSE 2 G 452°100%-
4/23 7:40amSE 1 G 452°100%-
4/23 7:30amN 2 G 552°100%-
4/23 7:20amNE 1 G 252°100%-
4/23 7:10amNE 1 G 352°100%-
4/23 7:00amNE 1 G 351°100%-
4/23 6:50amE 1 G 351°100%-
4/23 6:40amE 1 G 251°100%-
4/23 6:30amE 1 G 451°100%-
4/23 6:20amSE 1 G 251°100%-
4/23 6:10amE 1 G 250°100%-
4/23 6:00amENE 1 G 350°100%-